JTM125 LROP-LGAV

Flight info

Callsign JTM125
Flight time 1h 15m
Altitude 36000
Route POLUN TIMUR N181 NIKTI KOROS UG33 NEVRA
Aircraft B738/M-SDE2FGHIRWY/L

Departure

Time 2026-05-06 07:59
Airport Bucharest Henri Coandă International Airport (LROP)

Arrival

Time 2026-05-06 09:14
Airport Athens Eleftherios Venizelos International Airport (LGAV)
Time Latitude Longitude Altitude Speed Heading
2026-05-06 07:43 44.57013 26.08077 318 ft 0 kts 353°
2026-05-06 07:52 44.57018 26.08076 318 ft 2 kts 353°
2026-05-06 07:52 44.57016 26.08077 318 ft 2 kts 353°
2026-05-06 07:53 44.56987 26.08081 318 ft 6 kts 353°
2026-05-06 07:53 44.56945 26.08083 318 ft 3 kts 76°
2026-05-06 07:53 44.56943 26.08079 318 ft 3 kts 97°
2026-05-06 07:53 44.56941 26.08104 317 ft 0 kts 91°
2026-05-06 07:55 44.56941 26.08123 317 ft 6 kts 90°
2026-05-06 07:55 44.56945 26.08235 314 ft 14 kts 85°
2026-05-06 07:56 44.56971 26.08375 312 ft 14 kts 30°
2026-05-06 07:56 44.57070 26.08379 312 ft 14 kts 352°
2026-05-06 07:56 44.57169 26.08363 313 ft 13 kts 352°
2026-05-06 07:56 44.57231 26.08418 314 ft 11 kts 75°
2026-05-06 07:57 44.57278 26.08492 313 ft 11 kts
2026-05-06 07:57 44.57357 26.08484 313 ft 11 kts 354°
2026-05-06 07:57 44.57439 26.08474 313 ft 11 kts 355°
2026-05-06 07:57 44.57521 26.08463 313 ft 11 kts 351°
2026-05-06 07:58 44.57611 26.08450 313 ft 15 kts
2026-05-06 07:58 44.57671 26.08579 313 ft 19 kts 66°
2026-05-06 07:58 44.57692 26.08812 313 ft 40 kts 83°
2026-05-06 07:58 44.57756 26.09647 316 ft 127 kts 83°
2026-05-06 07:59 44.57878 26.11190 373 ft 188 kts 82°
2026-05-06 07:59 44.58050 26.13052 1310 ft 195 kts 84°
2026-05-06 07:59 44.58196 26.14951 2254 ft 208 kts 85°
2026-05-06 07:59 44.58325 26.16996 3072 ft 215 kts 85°
2026-05-06 08:00 44.58460 26.19037 3964 ft 216 kts 84°
2026-05-06 08:00 44.58617 26.21188 4651 ft 230 kts 83°
2026-05-06 08:00 44.58793 26.23407 5507 ft 236 kts 82°
2026-05-06 08:00 44.58988 26.25706 6397 ft 240 kts 80°
2026-05-06 08:01 44.59099 26.28009 7286 ft 244 kts 92°
2026-05-06 08:01 44.58588 26.30265 8150 ft 252 kts 119°
2026-05-06 08:01 44.57431 26.32115 8992 ft 260 kts 139°
2026-05-06 08:01 44.55874 26.33467 9835 ft 266 kts 153°
2026-05-06 08:02 44.54107 26.34228 10656 ft 272 kts 169°
2026-05-06 08:02 44.52227 26.34500 11484 ft 276 kts 178°
2026-05-06 08:02 44.50354 26.34002 12279 ft 281 kts 207°
2026-05-06 08:02 44.48864 26.32297 13091 ft 282 kts 236°
2026-05-06 08:03 44.47893 26.29935 13912 ft 284 kts 245°
2026-05-06 08:03 44.47033 26.27447 14707 ft 288 kts 246°
2026-05-06 08:03 44.46161 26.24957 15546 ft 291 kts 245°
2026-05-06 08:03 44.45247 26.22423 16344 ft 295 kts 244°
2026-05-06 08:04 44.44305 26.19866 17134 ft 299 kts 244°
2026-05-06 08:04 44.43351 26.17302 17903 ft 302 kts 244°
2026-05-06 08:04 44.42381 26.14701 18656 ft 306 kts 244°
2026-05-06 08:04 44.41389 26.12043 19343 ft 312 kts 245°
2026-05-06 08:05 44.40369 26.09304 19783 ft 326 kts 245°
2026-05-06 08:05 44.39312 26.06467 20214 ft 340 kts 245°
2026-05-06 08:05 44.38199 26.03484 20637 ft 354 kts 245°
2026-05-06 08:05 44.37047 26.00400 21173 ft 364 kts 245°
2026-05-06 08:06 44.35875 25.97275 21865 ft 368 kts 245°
2026-05-06 08:06 44.34681 25.94092 22558 ft 373 kts 245°
2026-05-06 08:06 44.33474 25.90881 23280 ft 375 kts 245°
2026-05-06 08:06 44.32268 25.87672 23968 ft 378 kts 245°
2026-05-06 08:07 44.31039 25.84407 24673 ft 380 kts 245°
2026-05-06 08:07 44.29816 25.81157 25292 ft 384 kts 245°
2026-05-06 08:07 44.28577 25.77874 26080 ft 382 kts 246°
2026-05-06 08:07 44.27343 25.74616 26886 ft 378 kts 246°
2026-05-06 08:08 44.26127 25.71404 27613 ft 376 kts 246°
2026-05-06 08:08 44.24916 25.68210 28315 ft 375 kts 246°
2026-05-06 08:08 44.23703 25.65008 28989 ft 373 kts 247°
2026-05-06 08:08 44.22504 25.61845 29641 ft 371 kts 247°
2026-05-06 08:09 44.21304 25.58681 30143 ft 373 kts 247°
2026-05-06 08:09 44.20083 25.55454 30321 ft 384 kts 247°
2026-05-06 08:09 44.18813 25.52098 30524 ft 394 kts 247°
2026-05-06 08:09 44.17525 25.48701 30658 ft 405 kts 247°
2026-05-06 08:10 44.16167 25.45124 30761 ft 418 kts 247°
2026-05-06 08:10 44.14767 25.41447 30879 ft 430 kts 246°
2026-05-06 08:10 44.13350 25.37737 31002 ft 442 kts 246°
2026-05-06 08:10 44.11869 25.33866 31084 ft 454 kts 246°
2026-05-06 08:11 44.10345 25.29891 31270 ft 464 kts 246°
2026-05-06 08:11 44.08821 25.25930 31834 ft 465 kts 245°
2026-05-06 08:11 44.07287 25.21958 32497 ft 464 kts 246°
2026-05-06 08:11 44.05772 25.18045 33208 ft 461 kts 246°
2026-05-06 08:12 44.04254 25.14129 33875 ft 458 kts 246°
2026-05-06 08:12 44.02733 25.10204 34480 ft 457 kts 246°
2026-05-06 08:12 44.01237 25.06347 34975 ft 456 kts 246°
2026-05-06 08:12 43.99744 25.02495 35427 ft 455 kts 246°
2026-05-06 08:13 43.98214 24.98549 35828 ft 456 kts 246°
2026-05-06 08:13 43.96697 24.94639 36002 ft 460 kts 246°
2026-05-06 08:13 43.93644 24.86794 36013 ft 455 kts 246°
2026-05-06 08:14 43.90644 24.79109 36012 ft 455 kts 246°
2026-05-06 08:14 43.87619 24.71376 36009 ft 454 kts 246°
2026-05-06 08:15 43.84613 24.63715 36011 ft 453 kts 246°
2026-05-06 08:15 43.81601 24.56056 36009 ft 452 kts 246°
2026-05-06 08:16 43.78592 24.48429 36009 ft 451 kts 246°
2026-05-06 08:16 43.75576 24.40803 36011 ft 452 kts 246°
2026-05-06 08:17 43.72278 24.33389 36004 ft 459 kts 236°
2026-05-06 08:17 43.70031 24.30169 36009 ft 467 kts 224°
2026-05-06 08:17 43.67350 24.27603 36010 ft 474 kts 213°
2026-05-06 08:18 43.61165 24.24193 36013 ft 483 kts 198°
2026-05-06 08:18 43.54451 24.22975 36014 ft 489 kts 185°
2026-05-06 08:19 43.47665 24.22793 36011 ft 491 kts 182°
2026-05-06 08:19 43.40850 24.22798 36010 ft 492 kts 182°
2026-05-06 08:20 43.34030 24.22738 36013 ft 490 kts 183°
2026-05-06 08:20 43.27172 24.22592 36013 ft 492 kts 184°
2026-05-06 08:21 43.20377 24.22399 36017 ft 491 kts 184°
2026-05-06 08:21 43.13514 24.22187 36022 ft 492 kts 184°
2026-05-06 08:22 43.06643 24.21946 36025 ft 492 kts 185°
2026-05-06 08:22 42.99786 24.21532 36032 ft 493 kts 186°
2026-05-06 08:23 42.92957 24.21047 36046 ft 491 kts 186°
2026-05-06 08:23 42.86126 24.20566 36062 ft 493 kts 186°
2026-05-06 08:24 42.79259 24.20098 36075 ft 494 kts 186°
2026-05-06 08:24 42.72400 24.19644 36085 ft 493 kts 186°
2026-05-06 08:25 42.65545 24.19197 36087 ft 494 kts 186°
2026-05-06 08:25 42.58710 24.18756 36078 ft 493 kts 186°
2026-05-06 08:26 42.51847 24.18316 36073 ft 494 kts 186°
2026-05-06 08:26 42.44942 24.17873 36065 ft 495 kts 186°
2026-05-06 08:27 42.38034 24.17433 36067 ft 495 kts 186°
2026-05-06 08:27 42.31130 24.16993 36061 ft 494 kts 186°
2026-05-06 08:28 42.24223 24.16552 36064 ft 494 kts 186°
2026-05-06 08:28 42.17345 24.16115 36081 ft 495 kts 186°
2026-05-06 08:29 42.10466 24.15677 36101 ft 497 kts 186°
2026-05-06 08:29 42.03555 24.15239 36107 ft 495 kts 186°
2026-05-06 08:30 41.96710 24.14807 36118 ft 497 kts 186°
2026-05-06 08:30 41.89807 24.14372 36125 ft 495 kts 186°
2026-05-06 08:31 41.82921 24.13938 36128 ft 498 kts 186°
2026-05-06 08:31 41.76011 24.13505 36126 ft 497 kts 186°
2026-05-06 08:32 41.69099 24.13071 36130 ft 497 kts 186°
2026-05-06 08:32 41.62190 24.12640 36124 ft 498 kts 186°
2026-05-06 08:33 41.55265 24.12542 36114 ft 501 kts 179°
2026-05-06 08:33 41.48350 24.13929 36108 ft 505 kts 169°
2026-05-06 08:34 41.38340 24.17333 35271 ft 491 kts 166°
2026-05-06 08:34 41.35001 24.18337 35105 ft 496 kts 172°
2026-05-06 08:35 41.31547 24.18964 35088 ft 504 kts 176°
2026-05-06 08:35 41.24463 24.19689 35078 ft 507 kts 179°
2026-05-06 08:36 41.17462 24.20295 35076 ft 507 kts 179°
2026-05-06 08:36 41.10416 24.20996 35071 ft 507 kts 178°
2026-05-06 08:37 41.03399 24.21790 35066 ft 507 kts 178°
2026-05-06 08:37 40.96378 24.22638 35057 ft 509 kts 177°
2026-05-06 08:38 40.89328 24.23511 35061 ft 508 kts 177°
2026-05-06 08:38 40.82295 24.24388 35060 ft 507 kts 177°
2026-05-06 08:39 40.75291 24.25258 35061 ft 507 kts 177°
2026-05-06 08:39 40.68223 24.26132 35066 ft 508 kts 177°
2026-05-06 08:40 40.61176 24.27000 35064 ft 508 kts 177°
2026-05-06 08:40 40.54172 24.27862 35060 ft 509 kts 177°
2026-05-06 08:41 40.47111 24.28730 35058 ft 507 kts 177°
2026-05-06 08:41 40.40025 24.29597 35064 ft 508 kts 177°
2026-05-06 08:42 40.32985 24.30457 35072 ft 510 kts 177°
2026-05-06 08:42 40.25990 24.31309 35070 ft 509 kts 177°
2026-05-06 08:43 40.18940 24.32167 35077 ft 509 kts 177°
2026-05-06 08:43 40.11922 24.33020 35076 ft 508 kts 177°
2026-05-06 08:44 40.04877 24.33873 35070 ft 509 kts 177°
2026-05-06 08:44 39.97813 24.34727 35074 ft 511 kts 177°
2026-05-06 08:45 39.90747 24.35578 35070 ft 509 kts 177°
2026-05-06 08:45 39.83723 24.36424 35071 ft 508 kts 177°
2026-05-06 08:46 39.76674 24.37272 35071 ft 506 kts 177°
2026-05-06 08:46 39.69656 24.38113 35071 ft 506 kts 177°
2026-05-06 08:47 39.62575 24.38960 35074 ft 506 kts 177°
2026-05-06 08:47 39.55581 24.39795 35070 ft 505 kts 177°
2026-05-06 08:48 39.48593 24.40627 35069 ft 505 kts 177°
2026-05-06 08:48 39.41598 24.41460 35071 ft 504 kts 178°
2026-05-06 08:49 39.34623 24.42288 35072 ft 503 kts 177°
2026-05-06 08:49 39.27616 24.43117 35070 ft 506 kts 177°
2026-05-06 08:50 39.20645 24.43941 35066 ft 503 kts 178°
2026-05-06 08:50 39.13670 24.44765 35069 ft 502 kts 177°
2026-05-06 08:51 39.06711 24.45585 35070 ft 502 kts 177°
2026-05-06 08:51 38.99712 24.46406 35068 ft 502 kts 178°
2026-05-06 08:52 38.92811 24.47216 35066 ft 502 kts 178°
2026-05-06 08:52 38.89297 24.47627 34778 ft 499 kts 178°
2026-05-06 08:52 38.85876 24.48030 34302 ft 493 kts 178°
2026-05-06 08:52 38.82512 24.48425 33676 ft 490 kts 177°
2026-05-06 08:53 38.79116 24.48822 33027 ft 487 kts 178°
2026-05-06 08:53 38.75758 24.49215 32437 ft 483 kts 177°
2026-05-06 08:53 38.72442 24.49602 31870 ft 479 kts 177°
2026-05-06 08:53 38.69137 24.49987 31228 ft 477 kts 178°
2026-05-06 08:54 38.65826 24.50372 30676 ft 472 kts 177°
2026-05-06 08:54 38.62577 24.50722 30089 ft 468 kts 180°
2026-05-06 08:54 38.59364 24.50612 29546 ft 460 kts 189°
2026-05-06 08:54 38.56202 24.50089 29030 ft 453 kts 193°
2026-05-06 08:55 38.53154 24.49432 28532 ft 448 kts 194°
2026-05-06 08:55 38.50087 24.48716 27983 ft 444 kts 194°
2026-05-06 08:55 38.47080 24.47990 27445 ft 441 kts 195°
2026-05-06 08:55 38.44099 24.47260 26958 ft 436 kts 195°
2026-05-06 08:56 38.41126 24.46528 26438 ft 431 kts 195°
2026-05-06 08:56 38.38204 24.45809 26016 ft 425 kts 195°
2026-05-06 08:56 38.35347 24.45108 25794 ft 413 kts 195°
2026-05-06 08:56 38.32522 24.44417 25401 ft 408 kts 195°
2026-05-06 08:57 38.29747 24.43736 24899 ft 405 kts 195°
2026-05-06 08:57 38.27020 24.43067 24426 ft 401 kts 195°
2026-05-06 08:57 38.24290 24.42399 23894 ft 399 kts 195°
2026-05-06 08:57 38.21581 24.41737 23397 ft 396 kts 195°
2026-05-06 08:58 38.18883 24.41079 22939 ft 392 kts 195°
2026-05-06 08:58 38.16223 24.40393 22486 ft 386 kts 199°
2026-05-06 08:58 38.13725 24.39243 22014 ft 377 kts 210°
2026-05-06 08:58 38.11400 24.37746 21517 ft 372 kts 213°
2026-05-06 08:59 38.09171 24.36172 21013 ft 369 kts 214°
2026-05-06 08:59 38.06942 24.34550 20562 ft 365 kts 214°
2026-05-06 08:59 38.04758 24.32943 20053 ft 363 kts 215°
2026-05-06 08:59 38.02590 24.31341 19602 ft 359 kts 215°
2026-05-06 09:00 38.00451 24.29746 19137 ft 356 kts 216°
2026-05-06 09:00 37.98393 24.28116 18655 ft 352 kts 217°
2026-05-06 09:00 37.96322 24.26422 18160 ft 349 kts 218°
2026-05-06 09:00 37.94313 24.24761 17681 ft 346 kts 218°
2026-05-06 09:01 37.92312 24.23095 17121 ft 343 kts 218°
2026-05-06 09:01 37.90346 24.21449 16343 ft 338 kts 218°
2026-05-06 09:01 37.88408 24.19811 15501 ft 336 kts 218°
2026-05-06 09:01 37.86484 24.18170 14680 ft 333 kts 218°
2026-05-06 09:02 37.84595 24.16542 13886 ft 329 kts 218°
2026-05-06 09:02 37.82719 24.14907 13092 ft 326 kts 218°
2026-05-06 09:02 37.80874 24.13284 12302 ft 322 kts 218°
2026-05-06 09:02 37.79085 24.11697 11571 ft 318 kts 218°
2026-05-06 09:03 37.77296 24.10100 10828 ft 314 kts 218°
2026-05-06 09:03 37.75537 24.08513 10108 ft 310 kts 218°
2026-05-06 09:03 37.73812 24.06939 9363 ft 307 kts 218°
2026-05-06 09:03 37.72086 24.05351 8660 ft 303 kts 218°
2026-05-06 09:04 37.70408 24.03790 7978 ft 299 kts 218°
2026-05-06 09:04 37.68771 24.02253 7270 ft 296 kts 218°
2026-05-06 09:04 37.67136 24.00701 6602 ft 292 kts 218°
2026-05-06 09:04 37.65565 23.99123 5995 ft 289 kts 225°
2026-05-06 09:05 37.64419 23.97073 5320 ft 285 kts 250°
2026-05-06 09:05 37.64095 23.94686 4690 ft 278 kts 276°
2026-05-06 09:05 37.64565 23.92403 4331 ft 262 kts 292°
2026-05-06 09:05 37.65270 23.90358 4044 ft 248 kts 295°
2026-05-06 09:06 37.65977 23.88467 3938 ft 229 kts 296°
2026-05-06 09:06 37.66661 23.86709 3793 ft 217 kts 296°
2026-05-06 09:06 37.67322 23.85032 3619 ft 213 kts 296°
2026-05-06 09:06 37.67978 23.83377 3434 ft 210 kts 296°
2026-05-06 09:07 37.68633 23.81728 3246 ft 207 kts 296°
2026-05-06 09:07 37.69481 23.80302 3049 ft 205 kts 323°
2026-05-06 09:07 37.70779 23.79669 2981 ft 200 kts 352°
2026-05-06 09:07 37.72197 23.79498 2963 ft 203 kts 355°
2026-05-06 09:08 37.73590 23.79359 2965 ft 199 kts 355°
2026-05-06 09:08 37.74933 23.79221 2970 ft 187 kts 355°
2026-05-06 09:08 37.76178 23.79088 2973 ft 172 kts 355°
2026-05-06 09:08 37.77318 23.78977 2968 ft 154 kts
2026-05-06 09:09 37.78305 23.79259 2964 ft 142 kts 24°
2026-05-06 09:09 37.79163 23.79828 2988 ft 138 kts 30°
2026-05-06 09:09 37.79987 23.80483 2962 ft 139 kts 34°
2026-05-06 09:09 37.80780 23.81189 2974 ft 142 kts 36°
2026-05-06 09:10 37.81585 23.81933 2892 ft 143 kts 36°
2026-05-06 09:10 37.82391 23.82687 2658 ft 142 kts 37°
2026-05-06 09:10 37.83179 23.83428 2483 ft 141 kts 37°
2026-05-06 09:10 37.83958 23.84163 2287 ft 141 kts 38°
2026-05-06 09:11 37.84740 23.84900 2104 ft 139 kts 38°
2026-05-06 09:11 37.85516 23.85632 1917 ft 138 kts 38°
2026-05-06 09:11 37.86287 23.86360 1737 ft 137 kts 38°
2026-05-06 09:11 37.87054 23.87083 1555 ft 137 kts 38°
2026-05-06 09:12 37.87811 23.87798 1375 ft 137 kts 38°
2026-05-06 09:12 37.88577 23.88523 1208 ft 137 kts 37°
2026-05-06 09:12 37.89344 23.89260 1023 ft 138 kts 38°
2026-05-06 09:12 37.90097 23.89975 857 ft 136 kts 36°
2026-05-06 09:13 37.90883 23.90679 660 ft 137 kts 38°
2026-05-06 09:13 37.91629 23.91405 488 ft 136 kts 38°
2026-05-06 09:13 37.92387 23.92120 315 ft 135 kts 37°
2026-05-06 09:13 37.93104 23.92791 303 ft 119 kts 37°
2026-05-06 09:14 37.93678 23.93339 263 ft 66 kts 36°
2026-05-06 09:14 37.93827 23.93490 266 ft 1 kts 46°
2026-05-06 09:14 37.93829 23.93493 266 ft 2 kts 46°
2026-05-06 09:14 37.93858 23.93536 266 ft 10 kts 52°
2026-05-06 09:15 37.93910 23.93639 268 ft 17 kts 63°
2026-05-06 09:15 37.93934 23.93702 269 ft 0 kts 66°
2026-05-06 09:16 37.93940 23.93722 270 ft 5 kts 71°
2026-05-06 09:17 37.93933 23.93795 271 ft 11 kts 129°
2026-05-06 09:17 37.93854 23.93785 271 ft 12 kts 211°
2026-05-06 09:17 37.93778 23.93715 269 ft 14 kts 216°
2026-05-06 09:17 37.93688 23.93629 266 ft 17 kts 217°
2026-05-06 09:18 37.93590 23.93536 264 ft 18 kts 216°
2026-05-06 09:18 37.93484 23.93438 262 ft 19 kts 205°
2026-05-06 09:18 37.93385 23.93512 260 ft 18 kts 128°
2026-05-06 09:18 37.93304 23.93642 259 ft 18 kts 123°
2026-05-06 09:19 37.93280 23.93686 259 ft 0 kts 126°
2026-05-06 09:20 37.93280 23.93687 259 ft 0 kts 126°
2026-05-06 09:20 37.93250 23.93740 259 ft 11 kts 126°
2026-05-06 09:20 37.93203 23.93819 260 ft 10 kts 127°
2026-05-06 09:20 37.93160 23.93890 262 ft 9 kts 127°
2026-05-06 09:21 37.93130 23.93940 264 ft 5 kts 127°
2026-05-06 09:21 37.93117 23.93962 265 ft 0 kts 127°
2026-05-06 09:21 37.93116 23.93964 265 ft 0 kts 127°
2026-05-06 09:22 37.93107 23.93979 266 ft 2 kts 126°
2026-05-06 09:23 37.93096 23.94013 267 ft 9 kts 101°
2026-05-06 09:23 37.93132 23.94086 269 ft 9 kts 39°
2026-05-06 09:23 37.93178 23.94131 271 ft 7 kts 37°
2026-05-06 09:23 37.93227 23.94177 272 ft 14 kts 36°
2026-05-06 09:24 37.93282 23.94267 277 ft 10 kts 91°
2026-05-06 09:24 37.93257 23.94326 280 ft 3 kts 126°
2026-05-06 09:24 37.93257 23.94327 280 ft 0 kts 126°
2026-05-06 09:24 37.93256 23.94328 280 ft 2 kts 124°
2026-05-06 09:25 37.93229 23.94378 281 ft 8 kts 124°
2026-05-06 09:25 37.93185 23.94402 281 ft 7 kts 193°
2026-05-06 09:25 37.93149 23.94374 280 ft 0 kts 217°